Dewpoint
-7 -7 -6 -5 -3 -2 3 4 6 9 10 12 13 12 12 14 15 15 14 14 14 15 17 18 18 18 19 21 21 21 22 22 23 26 27 28 27 26 26 26 24 23 23 23 21 19 20 20 19 21 21 22 23 24 23 24 20 22 21 22 23 23 27
-8 -7 -6 -5 -5 -4 -2 0 4 7 9 11 11 11 11 11 13 13 12 12 12 12 13 15 16 16 17 19 19 19 20 20 21 23 23 24 27 27 27 27 24 22 21 21 22 22 22 21 18 21 18 20 21 23 23 23 22 21 20 22 23 23 24
-10 -9 -7 -6 -5 -5 -5 -3 -0 3 6 10 10 10 10 10 11 10 10 9 9 9 11 11 12 12 13 16 16 18 19 20 20 20 20 21 22 22 24 25 26 23 20 20 21 22 22 21 21 20 22 17 18 19 19 20 22 20 20 21 21 23 23
-9 -10 -9 -7 -6 -5 -5 -5 -3 3 6 8 9 8 8 9 9 8 8 7 7 7 8 9 9 9 11 12 13 15 16 18 19 19 19 19 20 20 20 22 23 25 25 22 22 23 23 23 23 24 22 23 22 21 21 19 18 17 21 21 22 23 24
-8 -9 -9 -9 -8 -6 -5 -5 -4 3 5 8 8 6 7 8 8 8 7 6 5 5 5 6 6 7 8 10 10 11 12 16 17 17 17 18 18 18 18 20 21 22 23 24 24 24 23 23 23 24 23 24 22 23 23 22 19 22 21 21 21 21 21
-7 -7 -9 -10 -9 -8 -6 -5 -5 2 4 7 8 6 7 8 7 6 5 4 3 2 3 3 4 4 6 7 8 9 11 14 15 16 16 17 16 17 16 17 18 19 20 21 22 24 25 25 24 23 23 25 25 24 24 24 24 22 23 20 22 20 19
-7 -7 -8 -10 -10 -8 -7 -6 -5 0 4 7 8 7 7 7 6 4 3 3 2 2 1 1 2 3 4 5 7 9 10 12 13 14 15 16 15 16 14 14 15 15 16 17 19 20 22 23 25 25 24 24 25 24 22 22 23 23 22 22 22 24 23
-8 -8 -9 -9 -9 -9 -7 -7 -8 -3 3 9 10 8 7 6 6 3 2 1 1 1 1 1 1 1 3 5 7 9 10 11 11 12 13 15 15 15 13 13 13 12 13 13 15 17 18 20 22 23 23 23 23 22 21 22 22 22 23 23 22 21 23
-9 -9 -9 -9 -9 -9 -9 -9 -9 -4 4 10 11 9 8 6 3 2 1 -0 -0 -0 -0 -0 0 1 3 5 6 6 6 8 10 11 11 13 14 14 13 12 11 11 11 11 11 11 14 15 17 19 20 19 20 20 20 21 21 22 22 23 22 22 19
-9 -9 -8 -9 -9 -9 -8 -9 -9 -4 8 12 11 10 7 5 3 1 -1 -3 -3 -3 -2 -2 -2 0 4 3 2 3 3 5 6 8 10 11 12 13 12 12 12 11 11 11 10 11 11 10 12 14 13 14 15 18 17 17 16 17 19 20 19 20 19
-9 -8 -8 -9 -9 -9 -9 -9 -8 0 14 14 13 8 5 3 2 1 -1 -3 -4 -4 -4 -4 -4 -3 -0 -0 1 0 1 3 4 6 7 9 11 11 11 11 11 12 12 11 10 11 10 10 9 9 11 11 12 13 13 13 13 14 16 17 18 17 19
-9 -9 -9 -9 -9 -10 -10 -10 -6 11 13 13 12 10 3 3 1 0 -1 -2 -4 -5 -5 -5 -5 -5 -5 -4 -1 -1 -3 -1 3 4 5 7 8 8 10 10 10 10 9 10 9 9 9 10 8 9 9 9 11 11 11 11 12 12 13 14 15 16 17
-10 -9 -9 -9 -10 -10 -10 -11 -6 9 11 12 11 12 3 2 1 1 -1 -3 -5 -6 -6 -6 -6 -7 -6 -6 -1 -1 -4 -4 -2 2 4 5 6 6 7 8 8 8 8 8 7 7 8 9 8 9 9 9 10 11 9 11 12 12 13 13 13 13 14
-10 -10 -11 -10 -11 -11 -11 -11 -7 7 9 10 11 11 6 -1 -3 -4 -4 -4 -7 -8 -8 -8 -7 -7 -6 -6 -6 -6 -4 -4 -3 -3 -2 -1 -1 -1 2 5 5 6 7 8 5 4 5 6 7 9 11 12 13 11 10 12 11 12 11 11 12 13 14
-12 -12 -12 -13 -13 -13 -13 -12 -6 7 9 9 11 9 4 -6 -8 -8 -8 -8 -8 -8 -8 -8 -8 -8 -7 -7 -7 -5 -2 -3 -2 -1 -1 -3 -4 -3 -2 -1 -0 1 3 4 4 4 3 4 7 9 11 13 14 13 11 10 9 10 10 11 12 12 12
-12 -13 -14 -13 -15 -14 -14 -13 -7 6 8 8 10 6 -6 -9 -10 -11 -11 -10 -9 -9 -7 -7 -6 -6 -8 -9 -9 -3 -2 1 3 1 -3 -5 -5 -5 -4 -4 3 10 10 8 9 9 10 10 11 15 15 14 12 11 9 8 7 8 7 9 7 6 8
-13 -14 -15 -14 -15 -16 -15 -15 -11 -1 7 7 8 2 -8 -12 -12 -13 -11 -11 -12 -10 -10 -9 -7 -8 -9 -9 -9 -4 -1 4 2 -3 -4 -4 -6 -6 -8 -5 -3 3 9 10 11 12 12 13 13 12 12 12 11 8 6 4 1 0 4 3 2 3 4
-16 -16 -16 -16 -17 -15 -17 -17 -13 -9 2 5 6 0 -9 -11 -14 -17 -15 -13 -12 -13 -12 -10 -7 -6 -10 -10 -9 -4 -0 6 0 -1 -4 -5 -7 -9 -7 -5 -5 -6 -2 3 2 1 2 2 2 3 3 7 7 4 3 2 -3 -1 3 0 0 1 2
-19 -17 -18 -18 -18 -13 -18 -18 -15 -11 -6 3 4 1 -6 -10 -15 -17 -17 -14 -14 -14 -15 -13 -10 -8 -8 -8 -6 -4 4 3 -1 -2 -5 -6 -9 -10 -10 -6 -7 -8 -6 -5 -6 -7 -6 -6 -5 -5 -5 -3 0 1 1 -3 -2 2 2 -0 -1 0 2
-21 -21 -20 -19 -20 -19 -21 -19 -18 -14 -10 1 2 4 -4 -10 -14 -17 -19 -18 -16 -16 -17 -16 -15 -11 -9 -8 -7 -6 1 3 4 -0 -7 -8 -11 -11 -10 -4 -9 -7 -6 -8 -9 -10 -9 -9 -9 -9 -9 -10 -9 -6 -5 -0 -3 -3 -1 1 1 2 3
-23 -24 -22 -22 -20 -21 -21 -20 -19 -16 -13 -6 -4 2 -4 -12 -15 -17 -18 -19 -17 -17 -17 -15 -16 -17 -9 -9 -8 -7 -5 2 4 -1 -8 -11 -14 -9 -5 -6 -10 -9 -8 -11 -10 -10 -11 -11 -11 -10 -11 -11 -9 -7 -5 -5 -4 -5 -5 -2 -1 -1 -1
-24 -26 -24 -23 -22 -23 -23 -20 -16 -19 -16 -15 -9 -0 -7 -11 -16 -12 -14 -16 -21 -21 -17 -17 -18 -17 -11 -9 -9 -8 -2 3 1 -5 -8 -10 -6 -6 -8 -10 -9 -14 -14 -16 -13 -13 -13 -12 -14 -12 -12 -10 -8 -7 -5 -7 -8 -7 -7 -6 -4 -4 -4
-27 -27 -27 -28 -25 -25 -25 -24 -23 -17 -18 -16 -15 -8 -8 -10 -12 -11 -13 -18 -20 -19 -16 -18 -18 -14 -10 -9 -8 -5 1 -1 -7 -8 -11 -7 -7 -11 -12 -11 -15 -12 -17 -17 -16 -15 -15 -14 -13 -13 -12 -12 -11 -9 -9 -9 -8 -8 -8 -5 -3 -2 -1
-28 -28 -27 -27 -26 -27 -27 -26 -28 -20 -18 -17 -16 -14 -3 -10 -13 -13 -15 -15 -19 -18 -19 -17 -17 -12 -9 -9 -9 -9 -8 -8 -10 -10 -10 -11 -13 -13 -13 -14 -16 -19 -19 -16 -17 -18 -18 -16 -15 -14 -14 -12 -10 -11 -10 -9 -9 -8 -8 -7 -6 -5 -1
-28 -27 -27 -27 -26 -25 -25 -27 -28 -29 -22 -18 -17 -16 -15 -15 -14 -15 -14 -15 -17 -15 -16 -11 -10 -9 -9 -9 -9 -9 -9 -12 -13 -13 -13 -14 -14 -13 -18 -18 -21 -19 -21 -21 -20 -18 -17 -16 -14 -13 -11 -10 -10 -8 -9 -10 -10 -10 -9 -8 -8 -7 -4
-27 -27 -28 -27 -26 -26 -26 -26 -26 -25 -27 -20 -19 -18 -17 -16 -16 -15 -14 -14 -14 -13 -13 -13 -11 -11 -11 -11 -11 -13 -17 -14 -17 -15 -15 -15 -15 -21 -21 -21 -21 -22 -20 -21 -19 -17 -16 -15 -13 -14 -11 -10 -8 -11 -13 -13 -11 -11 -10 -10 -10 -7 -6
-27 -28 -29 -28 -26 -29 -27 -27 -27 -26 -26 -25 -25 -24 -21 -20 -19 -16 -15 -17 -19 -16 -18 -16 -14 -16 -15 -15 -15 -16 -16 -16 -16 -19 -20 -23 -23 -22 -22 -20 -22 -20 -19 -17 -17 -16 -15 -14 -13 -10 -9 -11 -13 -15 -15 -14 -9 -12 -14 -11 -11 -9 -8
-29 -29 -28 -30 -29 -30 -31 -29 -32 -29 -26 -25 -23 -21 -21 -22 -22 -23 -24 -21 -20 -20 -19 -20 -17 -20 -23 -24 -25 -25 -27 -28 -26 -24 -22 -24 -25 -24 -21 -16 -14 -13 -18 -18 -16 -16 -14 -13 -15 -18 -15 -14 -17 -18 -16 -14 -13 -13 -14 -13 -13 -14 -14
-30 -27 -30 -30 -30 -29 -31 -30 -30 -28 -17 -18 -19 -19 -20 -20 -22 -24 -23 -17 -16 -20 -23 -24 -27 -29 -25 -29 -26 -27 -29 -29 -28 -25 -24 -27 -26 -25 -25 -24 -24 -24 -22 -20 -18 -19 -16 -17 -17 -17 -18 -20 -20 -17 -17 -17 -18 -16 -17 -16 -14 -15 -13
-24 -24 -26 -28 -27 -29 -29 -29 -25 -20 -19 -19 -18 -18 -18 -18 -17 -17 -17 -17 -17 -21 -31 -33 -34 -33 -31 -29 -31 -30 -29 -27 -29 -27 -26 -27 -20 -22 -25 -23 -22 -25 -23 -19 -20 -19 -19 -18 -18 -20 -19 -20 -20 -18 -19 -17 -12 -18 -18 -18 -20 -18 -16
-20 -20 -21 -21 -27 -27 -22 -22 -22 -21 -20 -19 -19 -18 -18 -18 -18 -18 -18 -18 -20 -30 -34 -32 -32 -32 -33 -31 -32 -31 -29 -29 -29 -27 -28 -27 -27 -27 -25 -22 -26 -25 -22 -22 -22 -20 -21 -21 -22 -21 -19 -21 -19 -19 -17 -21 -19 -22 -22 -22 -19 -19 -17
-22 -22 -22 -22 -23 -24 -29 -23 -22 -21 -20 -19 -19 -19 -19 -19 -18 -18 -18 -19 -23 -31 -34 -34 -35 -34 -34 -33 -32 -30 -28 -29 -30 -29 -29 -29 -29 -27 -26 -26 -27 -24 -28 -26 -25 -24 -21 -22 -22 -22 -21 -21 -20 -18 -22 -23 -22 -21 -23 -22 -22 -20 -17
-23 -23 -23 -23 -23 -23 -22 -23 -22 -22 -21 -21 -20 -20 -21 -20 -19 -19 -20 -23 -32 -36 -35 -36 -35 -35 -34 -33 -32 -32 -33 -31 -30 -30 -30 -30 -29 -30 -29 -30 -28 -25 -28 -25 -24 -24 -26 -24 -24 -23 -22 -21 -22 -23 -24 -23 -23 -21 -24 -24 -25 -20 -19
-25 -25 -26 -25 -24 -24 -23 -23 -23 -23 -23 -22 -22 -21 -21 -21 -22 -22 -24 -26 -34 -35 -36 -36 -36 -34 -33 -33 -32 -31 -31 -31 -32 -31 -31 -30 -31 -32 -33 -31 -31 -32 -28 -28 -26 -28 -27 -26 -26 -25 -26 -25 -26 -25 -26 -26 -24 -24 -26 -26 -25 -23 -21
-35 -29 -28 -27 -26 -25 -25 -25 -25 -25 -24 -24 -23 -23 -22 -24 -33 -36 -36 -35 -36 -34 -36 -36 -35 -35 -33 -34 -34 -33 -33 -34 -35 -35 -33 -33 -33 -34 -34 -33 -32 -30 -30 -29 -30 -30 -29 -28 -25 -27 -26 -25 -26 -26 -27 -25 -25 -25 -24 -24 -23 -22 -23
-37 -38 -28 -28 -26 -26 -26 -26 -26 -26 -25 -24 -23 -23 -24 -34 -38 -39 -37 -36 -37 -37 -35 -34 -34 -34 -34 -36 -36 -36 -36 -37 -37 -35 -37 -37 -36 -33 -33 -34 -34 -30 -30 -30 -31 -30 -27 -25 -29 -28 -27 -29 -29 -28 -26 -25 -24 -23 -23 -21 -21 -20 -21